NOAA NWS Hourly Roundups by Site

Regional Weather Roundup for Green Bay, WI

To Select Another Site Choose from List

Select Site:  

000
ASUS43 KGRB 280811
RWRGRB

NORTH-CENTRAL AND NORTHEAST WISCONSIN REGIONAL WEATHER ROUNDUP
NATIONAL WEATHER SERVICE GREEN BAY WI
300 AM CDT THU OCT 28 2021

WIZ005-009-010>012-018-019-280900-
NORTH CENTRAL WISCONSIN

CITY           SKY/WX    TMP DP  RH WIND       PRES   REMARKS
IRONWOOD       CLOUDY    44  37  76 S6        29.85R
MANITOWISH WTR CLOUDY    43  37  81 S6        29.84S
ARBOR VITAE    CLOUDY    44  32  62 S6        29.84S
EAGLE RIVER    CLOUDY    42  42 100 CALM      29.84S
LAND O LAKES   CLOUDY    43  40  91 S3        29.87S
RHINELANDER    CLOUDY    42  40  92 E3        29.85R
PHILLIPS       MOCLDY    41  37  86 CALM      29.83R
ANTIGO         CLOUDY    43  43 100 SE5       29.84R FOG
TOMAHAWK         N/A     39  37  91 CALM      29.84S
MERRILL        MOCLDY    41  39  95 CALM      29.82S
$$

WIZ013-073-280900-
NORTHEAST WISCONSIN

CITY           SKY/WX    TMP DP  RH WIND       PRES   REMARKS
IRON MOUNTAIN  CLOUDY    45  42  89 E5        29.85F FOG
MARINETTE      LGT RAIN  50  50 100 S8        29.86F
OCONTO         CLOUDY    49  49 100 SE3       29.85S
$$

WIZ017-030-035>037-045-280900-
CENTRAL WISCONSIN

CITY           SKY/WX    TMP DP  RH WIND       PRES   REMARKS
MEDFORD        MOCLDY    41  39  94 E3        29.82S
WAUSAU         MOCLDY    44  38  79 NE5       29.81F
MOSINEE        MOCLDY    39  37  93 E5        29.83S
MARSHFIELD     MOCLDY    43  39  86 E7        29.81S
WISC RAPIDS    MOCLDY    44  40  85 NE3       29.82S
STEVENS POINT  MOCLDY    41  40  98 NE3       29.83S
WAUPACA        MOCLDY    47  43  84 CALM      29.83S
SHAWANO        CLOUDY    48  48  99 E6        29.84S
CLINTONVILLE   NOT AVBL
WAUTOMA        MOCLDY    44  41  89 NE3       29.82S
$$

WIZ038-039-048-051-280900-
FOX VALLEY

CITY           SKY/WX    TMP DP  RH WIND       PRES   REMARKS
NWS GREEN BAY  CLOUDY    50  47  89 E8        29.84S FOG
APPLETON       CLOUDY    46  43  87 E6        29.81S
OSHKOSH        MOCLDY    49  46  90 E6        29.81S
FOND DU LAC    MOCLDY    49  41  74 CALM      29.80F
$$

WIZ022-050-052-280900-
EAST CENTRAL WISCONSIN

CITY           SKY/WX    TMP DP  RH WIND       PRES   REMARKS
EPHRAIM        CLOUDY    49  46  92 SE7       29.86F FOG
WASHINGTON ISL CLOUDY    49  48  97 SE5       29.88F
STURGEON BAY   LGT RAIN  50  49  96 SE8       29.86F FOG
MANITOWOC      LGT RAIN  51  51 100 SE12      29.84S
SHEBOYGAN      LGT RAIN  52  50  93 SE7       29.82F
$$

LMZ563-521-522-541>543-280900-
LAKESHORE

STATION/POSITION TIME  TEMP    WIND        PRES    VSBY  WAVE
                       AIR SEA DIR/SP/G                  HT/PER
                 (UTC) (F)     (DEG/KT/KT) (MB)    (MI)  (FT/S)
SHEBOYGAN LKSHOR 0800   53     130/ 19/ 21   N/A
KEWAUNEE LKSHORE 0730   52     120/ 10/ 15 1009.5F
NORTHPORT PIER   0730   52     110/ 13     1012.9S
N MID LAKE BUOY  0750   52 57  130/ 12/ 16 1012.9S         2/ 4
SISTER BAY LKSHO 0725   51     120/  9/ 11   N/A
MENOMINEE LKSHOR 0730   51 53  130/ 13/ 15 1010.2F
$$


 

View Past Reports for Green Bay, WI.

Products Courtesy of NOAA-NWS
NWS Information Parsing Script by Ken True at Saratoga Weather - Script by SE Lincoln Weather.